User: anonymous   Login
Location: Unspecified
(0.0000°N, 0.0000°E)
Time: 03:40:27
(UTC+00:00)
Language:

PERSEUS M2 - Orbit

View from above orbital plane
View from above orbital plane
View from above satellite
View from above satellite

Ground track
Ground track

The orbit data is extracted from the following two-line orbital elements,

1 40037U 14033AD  18230.82380065  .00000063  00000-0  13357-4 0  9993
2 40037  97.8947 142.0409 0014158 350.4399   9.6544 14.86375453225836
Epoch (UTC): 18 August 2018 19:46:16
Eccentricity: 0.0014158
inclination: 97.8947°
perigee height: 599 km
apogee height: 619 km
right ascension of ascending node: 142.0409°
argument of perigee: 350.4399°
revolutions per day: 14.86375453
mean anomaly at epoch: 9.6544°
orbit number at epoch: 22583

The dashed part of the orbit path shows where the satellite is in the earth's shadow,  

DLR